Wind_Speed
25 27 28 32 23 13 9 9 9 9 12 16 18 23 23 20 18 20 15 25 24 22 25 28 17 29 28 25 22 23 24 25 29 28 26 24 22 21 19 19 20 21 20
20 20 27 32 31 25 21 18 12 17 20 25 29 29 27 28 28 30 28 28 25 19 30 25 27 31 33 30 17 28 28 29 32 33 32 30 26 24 24 23 23 22 23
22 23 24 29 30 29 27 26 25 27 25 28 29 30 30 29 31 33 32 30 28 28 27 24 25 31 30 24 34 22 31 36 35 37 39 35 29 26 23 26 28 27 26
28 28 25 23 27 26 30 29 31 28 27 27 27 26 27 30 33 34 34 32 30 30 30 30 30 32 33 37 21 25 21 25 28 36 21 28 30 26 24 24 28 30 30
22 26 23 28 29 28 27 27 28 28 26 26 25 24 27 31 31 30 29 31 33 34 37 37 32 32 38 33 21 29 27 32 27 23 29 35 23 21 22 26 27 30 32
22 26 25 22 23 23 23 22 22 23 23 24 25 27 29 31 31 27 28 32 36 38 39 35 33 36 32 33 28 26 30 31 35 30 33 30 16 22 29 31 31 30 31
19 20 20 21 20 19 20 20 20 19 19 23 24 28 30 31 25 25 31 36 42 44 43 41 32 31 32 29 30 25 21 28 29 24 22 21 23 27 29 32 36 34 31
15 17 18 17 17 17 18 19 18 17 15 15 16 22 26 26 24 28 33 39 42 46 46 34 28 25 20 20 22 21 20 19 22 21 18 20 22 25 30 33 35 36 39
11 13 13 13 14 15 16 16 17 18 19 16 16 21 21 21 25 31 37 41 44 47 38 31 28 25 22 20 19 19 21 22 22 23 24 24 25 24 25 29 35 39 39
10 11 12 12 11 13 15 15 16 15 17 20 25 28 27 24 28 36 41 46 47 47 34 31 29 26 24 21 20 18 19 22 22 22 25 26 26 26 27 32 32 39 41
8 11 11 12 12 13 13 15 17 17 19 23 27 31 30 27 30 37 43 48 48 46 39 34 24 19 17 19 18 21 22 20 18 19 21 22 25 26 25 27 34 38 34
7 8 10 11 12 12 13 13 16 20 23 26 29 31 30 28 30 37 43 49 49 45 39 29 30 25 22 23 22 21 20 15 13 15 17 19 21 24 26 26 29 37 39
5 9 9 12 14 15 13 14 18 23 24 26 28 30 30 28 31 38 44 50 49 46 42 34 31 29 21 20 16 12 10 8 11 12 14 17 19 21 25 29 28 33 38
6 8 11 12 13 13 15 18 19 21 24 26 28 29 30 31 34 39 44 50 49 48 45 43 32 32 26 21 20 16 14 13 15 15 15 16 17 17 18 25 29 32 34
6 8 9 11 14 16 17 16 18 20 23 26 29 31 31 32 34 38 43 48 52 47 44 42 42 34 31 26 21 19 17 15 14 15 15 16 15 14 13 15 23 29 33
3 6 8 10 14 16 16 17 18 20 23 26 29 31 32 32 35 38 42 46 51 48 44 40 39 37 27 25 22 19 17 18 17 14 13 14 14 11 10 9 15 26 31
2 4 7 10 14 17 19 21 20 20 22 25 28 31 33 33 36 38 41 45 48 50 44 41 39 38 29 26 26 24 21 21 20 19 18 18 14 10 7 7 9 18 26
4 5 8 10 13 17 20 23 22 22 22 25 28 31 33 33 35 37 39 42 45 48 48 45 41 37 35 30 31 27 22 20 21 19 19 15 12 12 8 6 10 12 18
5 6 8 10 13 15 18 22 26 28 26 26 28 32 34 34 34 36 39 40 41 49 51 48 44 37 37 38 30 30 25 24 21 17 20 15 9 8 11 9 8 16 19
6 6 8 9 8 12 15 20 24 29 33 32 31 33 35 37 37 37 39 40 42 46 51 52 47 41 35 38 38 34 30 23 25 24 19 13 9 8 9 13 13 13 21
8 7 9 8 4 8 12 17 21 25 29 35 36 36 34 37 38 38 38 41 43 44 49 52 50 46 39 37 40 39 35 30 25 24 21 19 12 9 5 10 16 16 17
10 8 9 7 3 5 7 12 17 22 25 30 35 38 38 38 39 40 40 42 44 44 46 49 52 50 45 37 40 43 40 34 28 19 16 11 12 14 8 4 14 18 20
11 10 10 7 2 4 6 8 12 19 23 28 33 33 36 39 39 41 42 42 44 45 45 47 50 52 49 41 41 45 43 36 29 21 17 12 8 9 8 1 8 19 22
13 13 12 9 4 2 5 6 10 16 20 26 31 31 32 37 42 41 43 44 45 45 47 46 49 52 52 45 44 47 42 37 32 25 19 15 13 8 6 7 8 13 22
15 16 14 11 6 3 5 5 7 13 19 24 28 26 28 33 37 42 44 45 47 48 49 48 48 51 53 51 48 48 44 43 35 27 19 18 17 14 9 12 14 13 19
18 17 17 13 8 5 5 4 9 15 21 25 28 22 27 33 34 36 41 46 47 48 48 48 47 49 53 53 52 51 44 46 43 34 27 20 22 21 20 14 16 17 16
Wind_Direction
49 61 57 50 47 72 97 133 73 34 36 50 38 32 31 21 3 359 358 347 348 315 327 343 314 294 279 270 263 263 264 263 263 261 258 255 248 250 251 248 246 239 235
54 63 65 64 61 72 88 100 92 54 41 27 20 18 15 10 5 355 355 354 339 327 335 322 318 317 280 253 265 263 258 254 255 258 252 249 246 242 237 240 242 236 234
66 74 64 61 58 58 61 62 51 37 26 23 18 11 7 4 359 353 351 349 343 336 333 327 312 309 308 292 283 284 258 261 262 252 246 235 232 242 241 243 242 238 235
70 62 62 60 58 46 43 40 37 28 21 22 19 8 3 358 357 351 350 345 340 335 325 313 306 303 305 304 262 276 276 244 259 278 222 207 223 229 242 246 249 244 242
60 49 58 50 47 42 39 33 29 22 15 14 8 3 357 358 354 351 345 348 339 329 314 306 306 299 296 271 313 295 286 281 291 242 282 302 269 241 246 251 247 246 244
58 53 66 47 42 39 36 33 28 21 13 8 7 3 354 351 355 351 350 346 336 327 315 314 308 304 291 308 297 294 280 285 288 284 287 290 243 251 250 253 249 247 241
68 65 57 53 48 38 31 27 23 23 13 4 358 351 346 348 356 359 354 349 340 326 323 329 321 304 296 296 294 294 287 283 290 288 282 272 255 239 241 247 243 237 236
75 71 60 50 47 44 36 29 22 24 18 10 354 350 348 347 359 5 358 355 344 325 332 336 336 336 321 300 294 294 291 290 286 288 287 274 263 258 250 243 241 238 239
81 75 72 57 46 41 35 31 26 16 8 2 1 357 354 358 6 5 3 357 349 332 344 344 338 333 325 317 310 304 299 293 292 290 285 278 269 259 254 250 244 242 243
94 82 66 55 46 43 35 33 29 21 13 3 2 2 6 7 9 10 9 3 359 342 352 350 346 336 327 319 316 310 309 309 304 298 290 282 275 263 252 247 240 239 243
64 68 66 59 46 40 36 29 25 20 13 12 7 6 7 8 13 14 12 8 4 350 359 1 2 350 339 334 324 313 316 318 305 290 283 280 277 269 259 244 239 234 233
51 61 57 54 49 40 34 26 21 20 15 14 9 7 7 11 14 16 16 12 7 4 9 9 3 354 339 330 318 316 317 312 304 299 295 288 279 267 262 250 239 233 231
46 55 49 42 36 34 26 21 20 18 17 14 10 8 6 12 16 18 19 18 11 11 17 7 359 3 360 350 344 343 334 322 317 316 314 304 289 275 264 252 246 234 227
50 46 37 29 25 24 26 25 18 14 15 14 10 11 8 13 20 21 22 22 16 13 11 16 9 5 3 6 8 7 2 346 332 325 316 314 310 288 267 256 243 232 227
63 53 43 28 29 28 29 22 18 14 12 15 9 13 12 15 21 25 26 25 22 14 10 11 16 7 2 1 4 2 352 346 342 337 334 326 320 302 281 262 242 227 224
81 65 49 41 38 37 31 25 17 15 15 15 10 12 15 16 21 26 27 28 25 17 13 9 9 9 8 2 358 353 352 344 336 327 326 319 320 315 289 268 239 223 221
145 97 78 60 46 43 35 31 22 18 18 15 13 13 16 17 21 25 27 29 28 22 14 13 12 13 12 10 355 347 341 339 335 327 322 311 299 307 291 253 236 223 216
203 124 101 76 54 40 32 34 26 22 19 17 15 16 17 19 21 23 26 29 28 25 21 20 18 18 15 6 6 2 356 348 343 343 338 326 304 278 277 242 213 212 212
215 143 106 82 59 41 32 36 34 30 23 18 17 17 16 21 23 24 26 27 29 30 25 22 20 17 14 16 13 5 1 359 350 351 354 332 308 303 265 250 208 200 199
223 171 119 93 63 45 36 37 33 35 33 27 22 19 17 19 22 23 25 26 28 29 28 22 19 18 13 16 13 8 4 358 351 346 350 351 335 318 263 242 222 201 196
224 188 137 125 91 50 33 37 29 30 28 28 27 25 20 18 21 22 24 25 27 27 27 23 17 20 17 18 16 13 7 1 347 353 354 5 360 340 288 221 219 208 200
221 203 158 133 110 61 24 36 26 22 22 20 23 26 23 19 17 20 21 24 27 26 27 23 18 18 22 18 17 13 7 2 352 347 360 354 359 4 21 194 201 205 197
218 203 171 164 145 44 34 29 23 16 13 16 15 17 21 21 19 18 20 21 26 25 27 26 20 17 21 19 17 15 10 11 4 3 7 15 349 351 349 223 179 193 195
216 206 186 176 190 51 9 2 16 12 4 7 10 10 29 30 24 21 20 19 22 25 27 25 25 21 22 21 17 16 14 16 13 11 10 14 16 44 22 108 130 165 182
216 208 195 179 192 254 314 326 360 357 354 354 3 10 20 22 24 23 22 19 18 21 26 24 23 24 21 20 17 19 20 16 18 11 8 29 30 30 48 104 108 133 164
218 209 201 185 202 231 321 334 343 346 344 342 343 359 8 11 12 21 21 22 17 17 24 23 24 22 22 20 18 18 21 19 21 15 22 50 42 52 71 93 98 111 131
Height
5909 5909 5909 5905 5903 5901 5902 5903 5905 5905 5904 5904 5899 5896 5893 5891 5886 5881 5878 5875 5869 5862 5854 5859 5856 5853 5850 5849 5845 5842 5841 5840 5840 5840 5840 5840 5841 5843 5844 5847 5849 5852 5853
5916 5913 5913 5910 5909 5906 5906 5906 5907 5905 5901 5898 5895 5893 5890 5886 5882 5879 5876 5874 5871 5855 5856 5856 5849 5844 5835 5829 5833 5834 5831 5831 5831 5829 5829 5831 5834 5836 5837 5840 5843 5845 5848
5919 5916 5913 5910 5909 5909 5908 5906 5904 5897 5899 5897 5895 5893 5889 5886 5882 5877 5873 5871 5869 5864 5859 5854 5846 5841 5832 5823 5828 5826 5827 5821 5822 5821 5811 5817 5823 5829 5832 5834 5837 5839 5841
5918 5917 5916 5915 5910 5910 5906 5904 5899 5900 5900 5899 5897 5895 5892 5887 5881 5876 5871 5868 5863 5860 5855 5846 5836 5832 5829 5826 5821 5815 5812 5793 5811 5806 5806 5806 5813 5818 5823 5827 5831 5834 5836
5923 5919 5914 5913 5911 5910 5908 5907 5905 5903 5902 5901 5900 5899 5894 5890 5884 5878 5870 5867 5863 5856 5845 5835 5828 5825 5822 5816 5810 5805 5803 5802 5805 5802 5793 5802 5813 5812 5816 5819 5823 5827 5830
5926 5924 5922 5921 5918 5916 5915 5913 5910 5908 5906 5904 5901 5898 5895 5890 5886 5878 5873 5868 5859 5848 5838 5832 5825 5817 5809 5807 5804 5802 5799 5797 5799 5801 5800 5800 5802 5804 5808 5812 5813 5817 5822
5931 5929 5929 5926 5924 5922 5919 5917 5915 5914 5910 5907 5904 5900 5895 5890 5885 5881 5873 5863 5853 5840 5830 5823 5816 5807 5801 5798 5795 5796 5795 5792 5792 5792 5791 5791 5793 5795 5797 5801 5805 5807 5812
5935 5934 5932 5930 5928 5926 5924 5922 5920 5918 5916 5913 5909 5904 5898 5891 5886 5879 5872 5862 5851 5835 5822 5813 5806 5799 5794 5791 5788 5787 5787 5786 5784 5783 5783 5785 5786 5786 5788 5791 5794 5798 5801
5937 5937 5936 5934 5932 5930 5928 5926 5923 5920 5917 5914 5909 5905 5898 5890 5883 5876 5869 5859 5845 5828 5818 5807 5800 5794 5791 5787 5783 5780 5778 5778 5777 5776 5775 5775 5777 5779 5780 5783 5786 5788 5790
5940 5939 5938 5936 5935 5932 5931 5928 5926 5922 5919 5913 5907 5901 5894 5887 5881 5874 5865 5855 5841 5825 5815 5805 5797 5790 5785 5781 5778 5775 5771 5769 5768 5767 5765 5766 5767 5769 5772 5774 5776 5778 5781
5940 5939 5939 5938 5936 5935 5933 5930 5927 5923 5919 5913 5906 5898 5891 5886 5879 5871 5863 5852 5838 5822 5811 5802 5796 5790 5785 5778 5774 5770 5767 5766 5763 5761 5760 5759 5757 5758 5761 5764 5765 5767 5771
5941 5940 5939 5939 5938 5936 5933 5931 5927 5922 5916 5911 5905 5899 5892 5887 5879 5871 5862 5849 5834 5820 5808 5801 5796 5790 5783 5777 5772 5768 5764 5761 5758 5756 5754 5752 5750 5749 5749 5752 5755 5758 5761
5941 5940 5939 5938 5937 5935 5932 5929 5924 5920 5916 5911 5905 5899 5893 5885 5877 5868 5859 5847 5832 5819 5809 5801 5793 5786 5779 5774 5770 5765 5762 5759 5756 5753 5749 5747 5743 5741 5740 5741 5743 5745 5751
5941 5940 5939 5937 5936 5934 5930 5926 5923 5920 5916 5911 5905 5899 5892 5884 5875 5867 5857 5846 5832 5819 5809 5802 5793 5785 5778 5773 5768 5763 5759 5755 5751 5748 5745 5742 5738 5735 5733 5732 5734 5737 5741
5941 5940 5939 5937 5935 5932 5929 5926 5923 5919 5915 5910 5904 5898 5890 5883 5876 5867 5857 5846 5833 5821 5811 5803 5794 5785 5778 5772 5767 5763 5758 5752 5748 5744 5739 5736 5734 5729 5727 5725 5725 5729 5733
5940 5939 5939 5937 5935 5932 5929 5926 5922 5919 5914 5909 5903 5897 5890 5882 5875 5866 5857 5847 5835 5823 5813 5803 5795 5787 5780 5773 5767 5763 5758 5753 5747 5742 5736 5731 5728 5725 5722 5720 5719 5723 5726
5940 5939 5939 5937 5936 5933 5930 5926 5922 5918 5914 5909 5903 5896 5889 5881 5873 5865 5857 5848 5838 5826 5814 5805 5797 5789 5780 5774 5767 5760 5755 5750 5745 5739 5733 5728 5722 5719 5717 5716 5715 5717 5720
5940 5939 5939 5938 5936 5933 5930 5927 5923 5918 5914 5909 5903 5897 5890 5881 5874 5866 5858 5849 5840 5830 5818 5807 5797 5789 5781 5773 5765 5758 5752 5746 5740 5733 5727 5722 5717 5714 5712 5712 5712 5713 5715
5939 5939 5939 5938 5936 5934 5932 5928 5924 5919 5914 5909 5904 5898 5891 5884 5876 5868 5860 5852 5843 5833 5821 5808 5797 5789 5781 5772 5764 5757 5749 5742 5735 5728 5722 5716 5713 5710 5708 5707 5708 5710 5712
5938 5938 5938 5938 5936 5935 5933 5929 5925 5922 5916 5911 5905 5899 5892 5885 5877 5869 5862 5854 5844 5835 5823 5810 5799 5789 5781 5773 5764 5756 5747 5739 5731 5724 5718 5712 5709 5705 5703 5703 5703 5706 5709
5937 5937 5938 5938 5937 5936 5933 5930 5927 5923 5919 5913 5906 5900 5893 5886 5879 5872 5864 5854 5845 5836 5825 5814 5802 5791 5781 5773 5764 5755 5746 5737 5728 5720 5714 5708 5705 5700 5697 5697 5699 5702 5705
5936 5936 5937 5937 5937 5935 5934 5931 5928 5924 5920 5915 5909 5902 5896 5889 5882 5874 5866 5856 5847 5839 5829 5818 5806 5794 5783 5774 5764 5755 5745 5734 5723 5716 5710 5706 5702 5698 5694 5693 5695 5698 5702
5934 5934 5936 5937 5936 5935 5933 5931 5929 5925 5921 5916 5911 5905 5899 5891 5884 5876 5869 5860 5851 5843 5834 5822 5812 5799 5785 5775 5765 5753 5743 5732 5722 5714 5708 5703 5699 5695 5692 5691 5691 5694 5698
5931 5932 5934 5935 5936 5934 5933 5932 5929 5926 5922 5918 5913 5907 5901 5894 5886 5878 5870 5863 5855 5846 5836 5827 5817 5805 5792 5780 5767 5754 5743 5734 5725 5715 5706 5701 5697 5693 5691 5688 5690 5691 5696
5928 5930 5932 5934 5934 5933 5932 5931 5929 5926 5922 5918 5914 5909 5902 5896 5888 5881 5873 5866 5857 5848 5839 5831 5821 5809 5796 5782 5769 5756 5745 5736 5726 5715 5707 5705 5699 5694 5690 5690 5691 5694 5697
5925 5927 5929 5931 5932 5931 5930 5930 5928 5926 5922 5918 5913 5910 5904 5898 5890 5883 5876 5868 5860 5852 5843 5835 5826 5813 5800 5787 5772 5761 5749 5739 5728 5717 5710 5706 5701 5697 5694 5694 5695 5697 5701